STARLINK-11562, 62918

Orbit data source: Space-Track

STARLINK-11562, 62918 is a payload satellite owned by SpaceX/Seattle (US) in LEO that was launched on Sat, 08 Feb 2025 UTC via an FALCON 9 launch vehicle from the Air Force Eastern Test Range (AFETR). Payload-class satellites include a variety of spacecraft equipped with specific instruments for various scientific and technological missions. These include communications satellites like Starlink; space stations such as the ISS; scientific satellites like the Hubble; Earth observation satellites from companies like Planet Labs, Umbra, and HawkEye 360; GPS; miniature CubeSats for education and research; and military/defense satellites.

Loading next visibility...
Identifier
62918, 2025-027M
Orbit
LEO
Country
Flag of USUS
Related business
Manufacturer
SpaceX/Seattle
Mission
Operational Commercial Communications
Bus & Motor
STARLINK V2MD, Unknown motor
Mass
960 kg wet, ~910 kg dry
Launch date (UTC)
2025-02-08 (7 months ago)
Launch vehicle
FALCON 9
Launch site
Air Force Eastern Test Range (AFETR)
Object type
Payload
Rocket body
Debris
Shape & HBR
Box + 2 Pan, 14.5 m
Radar Cross Section
36.964 m², Large (>1 m²)

Expand to show TLE details & history
Last TLE update: 2 days ago

TLE from 2 days ago
0 STARLINK-11562
1 62918U 25027M   25257.49708392  .00162364  00000-0  12432-2 0  9991
2 62918  43.0025 329.5107 0001115 263.0651  97.0090 15.70860438 35487
Epoch: 2025-09-14T11:55Z
TLE epoch observation values (Epoch: 2025-09-14T11:55:48.05Z)
Latitude
-0.00002°
Longitude
156.84523°
Altitude
356.3 km
Speed
7.697 km/s
True Right ascension
21h 58m 02s
True Declination
0° 00' 00"
Sunlit
Object was in full shadow at epoch
Visualization orbit readout
Latitude
Unknown
Longitude
Unknown
Altitude
Unknown
Speed
Unknown
Apparent Right ascension
Unknown
Apparent Declination
Unknown
Sunlit
N/A
Visualization observer readout
Local Sidereal Time
20:19:45
Azimuth
Unknown
Elevation
Unknown
Doppler factor
Unknown
Orbital elements
Apogee altitude
359.169 km
Perigee altitude
357.667 km
Semi-major axis
6,736.555 km
Eccentricity
0.00011
Inclination
43.0025°
RAAN
329.5107°
Arg. of periapsis
263.0651°
True anomaly
97.02168°
Mean anomaly
97.009°
Eccentric anomaly
97.01534°
Mean motion
3.92542 °/min
Orbital period
91.71 mins
BSTAR
0.0012432
Loading maneuver chart data...
Computing Atmospheric mass density...
Loading historical data...
Loading historical data...
Loading historical data...
Loading historical data...
Loading historical data...
Loading historical data...
Loading historical data...

Documentation

Showing up to 5 results
|